Location: Clifton Park
(41.4873°N, 81.8024°W)
Time: 17:22:21
(UTC+00:00)

SKYMED 2 - Pass Details

Date: 21 January 2020
Orbit: 621 x 623 km, 97.9° (Epoch: 19 February)

Event Time Altitude Azimuth Distance (km) Brightness Sun altitude
Rises 11:08:15 0° 183° (S) 2,889 7.1 -18.6°
Reaches altitude 10° 11:10:32 10° 190° (S) 1,988 6.2 -18.2°
Maximum altitude 11:14:38 42° 262° (W) 897 3.9 -17.4°
Enters shadow 11:16:18 29° 310° (NW) 1,152 4.4 -17.1°
